Showing default

SNUGLITE-II, 52899

Orbit data source: Space-Track

SNUGLITE-II, 52899 is a payload satellite owned by SNU (KR) in SSO that was launched on Tue, 21 Jun 2022 UTC via an NURI launch vehicle from the Naro Space Center, South Korea (NSC). Payload-class satellites include a variety of spacecraft equipped with specific instruments for various scientific and technological missions. These include communications satellites like Starlink; space stations such as the ISS; scientific satellites like the Hubble; Earth observation satellites from companies like Planet Labs, Umbra, and HawkEye 360; GPS; miniature CubeSats for education and research; and military/defense satellites.

Loading next visibility...
Identifier
52899, 2022-065F
Orbit
SSO
Last TLE update
13 hours ago
Origin
Manufacturer
SNU
Mission
Operational Amateur Technology
Bus & Motor
CUBESAT 3U, Unknown motor
Mass
4 kg wet, 4 kg dry
Launch date (UTC)
2022-06-21 (3 years ago)
Launch vehicle
NURI
Launch site
Naro Space Center, South Korea (NSC)
Object type
Payload
Rocket body
Debris
Shape & HBR
Box + 1 Rod, 0.4 m
Radar Cross Section
0.035 m², Small (<0.1 m²)

Expand to show TLE details & history

TLE from 13 hours ago
0 SNUGLITE-II
1 52899U 22065F   25187.91136703  .00000772  00000-0  15897-3 0  9990
2 52899  98.1719 329.6239 0008244  36.5713 323.6050 14.63264069160486
Epoch: 2025-07-06T21:52Z
TLE epoch observation values (Epoch: 2025-07-06T21:52:22.111Z)
Latitude
-0.00006°
Longitude
76.40351°
Altitude
680.96 km
Speed
7.519 km/s
True Right ascension
21h 58m 29s
True Declination
0° 00' 00"
Sunlit
Object was in full shadow at epoch
Visualization orbit readout
Latitude
67.6092°
Longitude
56.67362°
Altitude
689.516 km
Speed
7.52 km/s
Apparent Right ascension
13h 27m 35s
Apparent Declination
36° 10' 43"
Sunlit
Object is in daylight
Visualization observer readout
Local Sidereal Time
23:21:10
Azimuth
334.675° NNW
Elevation
-8.54°
Doppler factor
1
Orbital elements
Apogee altitude
685.548 km
Perigee altitude
673.911 km
Semi-major axis
7,057.867 km
Eccentricity
0.00082
Inclination
98.1719°
RAAN
329.6239°
Arg. of periapsis
36.5713°
True anomaly
Unknown
Mean anomaly
323.605°
Eccentric anomaly
Unknown
Mean motion
3.66044 °/min
Orbital period
98.35 mins
BSTAR
0.00015897
Loading maneuver chart data...
Loading SW <> Apogee altitude chart data...
Loading historical data...
Loading historical data...
Loading historical data...
Loading historical data...
Loading historical data...
Loading historical data...
Loading historical data...

SNUGLITE-II Visibility forecast

Observer location: undefined°, undefined°

Span
Click to sort rows by Start time (UTC) header in descending order
Start Az.
Max El. time (UTC)
Max El. Az.
Max El.
End time (UTC)
End Az.
7 mins2025-07-07 21:25:55.578Z42.805° NE2025-07-07 21:29:55.578Z102.829° ESE21.126°2025-07-07 21:32:55.578Z145.135° SSE
7 mins2025-07-07 23:03:55.578Z345.416° N2025-07-07 23:06:55.578Z289.049° WNW28.992°2025-07-07 23:10:55.578Z227.102° WSW
5 mins2025-07-08 08:29:55.578Z104.569° ESE2025-07-08 08:31:55.578Z71.788° E20.877°2025-07-08 08:34:55.578Z23.448° NE
6 mins2025-07-08 10:06:55.578Z211.5° SW2025-07-08 10:08:55.578Z251.389° W29.29°2025-07-08 10:12:55.578Z324.819° NNW
|